SAS77B EKCH-EGLL

Flight info

Callsign SAS77B
Flight time N/A
Altitude 40000
Route LANGO2F LANGO M611 ALASA DCT WANZA DCT BEDUM DCT SPY DCT ABNED L980 LOGAN LOGAN2H
Aircraft A333/H-SDE3GHIJ2J3J5M1RVWXY/LB2D1

Departure

Time 2026-05-03 22:56
Airport Copenhagen Kastrup Airport (EKCH)

Arrival

Time N/A
Airport London Heathrow Airport (EGLL)
Time Latitude Longitude Altitude Speed Heading
2026-05-03 22:29 55.62347 12.65839 20 ft 0 kts 38°
2026-05-03 22:37 55.62344 12.65835 20 ft 2 kts 38°
2026-05-03 22:37 55.62332 12.65818 20 ft 2 kts 38°
2026-05-03 22:38 55.62320 12.65801 21 ft 2 kts 38°
2026-05-03 22:38 55.62308 12.65785 21 ft 2 kts 40°
2026-05-03 22:38 55.62298 12.65766 21 ft 2 kts 68°
2026-05-03 22:38 55.62295 12.65747 22 ft 0 kts 86°
2026-05-03 22:39 55.62295 12.65739 22 ft 0 kts 87°
2026-05-03 22:41 55.62296 12.65777 21 ft 7 kts 85°
2026-05-03 22:41 55.62305 12.65925 20 ft 15 kts 78°
2026-05-03 22:41 55.62386 12.66098 21 ft 21 kts 43°
2026-05-03 22:41 55.62508 12.66290 21 ft 26 kts 40°
2026-05-03 22:42 55.62618 12.66515 20 ft 24 kts 89°
2026-05-03 22:42 55.62614 12.66550 19 ft 0 kts 112°
2026-05-03 22:44 55.62606 12.66573 19 ft 4 kts 120°
2026-05-03 22:44 55.62604 12.66582 19 ft 0 kts 121°
2026-05-03 22:45 55.62578 12.66645 18 ft 12 kts 129°
2026-05-03 22:46 55.62500 12.66677 17 ft 14 kts 207°
2026-05-03 22:46 55.62442 12.66605 18 ft 0 kts 220°
2026-05-03 22:47 55.62442 12.66604 18 ft 0 kts 221°
2026-05-03 22:49 55.62442 12.66605 18 ft 0 kts 221°
2026-05-03 22:49 55.62442 12.66604 18 ft 0 kts 221°
2026-05-03 22:50 55.62442 12.66605 18 ft 0 kts 221°
2026-05-03 22:50 55.62442 12.66604 18 ft 0 kts 221°
2026-05-03 22:53 55.62442 12.66605 18 ft 0 kts 221°
2026-05-03 22:53 55.62442 12.66604 18 ft 0 kts 221°
2026-05-03 22:53 55.62442 12.66605 18 ft 0 kts 221°
2026-05-03 22:54 55.62442 12.66604 18 ft 0 kts 221°
2026-05-03 22:54 55.62442 12.66605 18 ft 0 kts 221°
2026-05-03 22:54 55.62442 12.66604 18 ft 0 kts 221°
2026-05-03 22:55 55.62374 12.66502 18 ft 31 kts 223°
2026-05-03 22:55 55.62024 12.65958 18 ft 113 kts 222°
2026-05-03 22:55 55.61226 12.64730 49 ft 186 kts 223°
2026-05-03 22:55 55.60164 12.63051 465 ft 216 kts 221°
2026-05-03 22:56 55.59077 12.61448 1537 ft 213 kts 223°
2026-05-03 22:56 55.57987 12.59181 1897 ft 272 kts 227°
2026-05-03 22:56 55.56424 12.57376 2846 ft 270 kts 208°
2026-05-03 22:56 55.54734 12.55786 2925 ft 286 kts 212°
2026-05-03 22:57 55.53475 12.53785 3941 ft 222 kts 235°
2026-05-03 22:57 55.52816 12.51309 4427 ft 224 kts 250°
2026-05-03 22:57 55.52664 12.48850 5751 ft 186 kts 260°
2026-05-03 22:57 55.52367 12.46905 6923 ft 161 kts 247°
2026-05-03 22:58 55.51939 12.45166 7688 ft 156 kts 243°
2026-05-03 22:58 55.51448 12.43478 8280 ft 158 kts 240°
2026-05-03 22:58 55.50915 12.41789 8836 ft 164 kts 239°
2026-05-03 22:58 55.50326 12.40001 9325 ft 177 kts 239°
2026-05-03 22:59 55.49692 12.38117 9998 ft 182 kts 238°
2026-05-03 22:59 55.49044 12.36206 10690 ft 186 kts 238°
2026-05-03 22:59 55.48385 12.34275 11381 ft 188 kts 237°
2026-05-03 22:59 55.47706 12.32293 12185 ft 198 kts 237°
2026-05-03 23:00 55.47027 12.30310 13295 ft 188 kts 237°
2026-05-03 23:00 55.46349 12.28337 13917 ft 194 kts 237°
2026-05-03 23:00 55.45645 12.26290 14593 ft 198 kts 237°
2026-05-03 23:00 55.44939 12.24236 15280 ft 201 kts 237°
2026-05-03 23:01 55.44223 12.22157 15934 ft 203 kts 237°
2026-05-03 23:01 55.43486 12.20017 16547 ft 208 kts 238°
2026-05-03 23:01 55.42728 12.17819 17318 ft 213 kts 237°
2026-05-03 23:01 55.41955 12.15582 17973 ft 221 kts 238°
2026-05-03 23:02 55.41144 12.13233 18619 ft 230 kts 238°
2026-05-03 23:02 55.40310 12.10817 19263 ft 239 kts 238°
2026-05-03 23:02 55.39431 12.08279 19908 ft 247 kts 237°
2026-05-03 23:02 55.38534 12.05691 20546 ft 255 kts 237°
2026-05-03 23:03 55.37597 12.02991 21189 ft 263 kts 237°
2026-05-03 23:03 55.36633 12.00215 21836 ft 270 kts 237°
2026-05-03 23:03 55.35647 11.97379 22476 ft 277 kts 237°
2026-05-03 23:03 55.34649 11.94511 23111 ft 283 kts 237°
2026-05-03 23:04 55.33614 11.91543 23752 ft 289 kts 237°
2026-05-03 23:04 55.32550 11.88495 24410 ft 294 kts 237°
2026-05-03 23:04 55.31473 11.85416 25081 ft 299 kts 236°
2026-05-03 23:04 55.30396 11.82334 25752 ft 304 kts 236°
2026-05-03 23:05 55.29283 11.79158 26430 ft 308 kts 236°
2026-05-03 23:05 55.28157 11.75950 27099 ft 312 kts 236°
2026-05-03 23:05 55.27029 11.72735 27763 ft 315 kts 236°
2026-05-03 23:05 55.25870 11.69442 28445 ft 318 kts 236°
2026-05-03 23:06 55.24699 11.66171 29115 ft 320 kts 235°
2026-05-03 23:06 55.23505 11.62937 29776 ft 321 kts 235°
2026-05-03 23:06 55.22297 11.59662 30442 ft 322 kts 235°
2026-05-03 23:06 55.21219 11.56744 31037 ft 322 kts 235°
2026-05-03 23:07 55.20000 11.53447 31708 ft 321 kts 234°
2026-05-03 23:07 55.18803 11.50212 32366 ft 320 kts 234°
2026-05-03 23:07 55.17598 11.46963 33028 ft 318 kts 234°
2026-05-03 23:07 55.16406 11.43750 33686 ft 315 kts 234°
2026-05-03 23:08 55.15227 11.40577 34342 ft 311 kts 234°
2026-05-03 23:08 55.14050 11.37415 34942 ft 307 kts 234°
2026-05-03 23:08 55.12886 11.34296 35021 ft 311 kts 234°
2026-05-03 23:09 55.10518 11.27956 35238 ft 317 kts 234°
2026-05-03 23:09 55.09310 11.24729 35342 ft 320 kts 234°
2026-05-03 23:09 55.08088 11.21462 35448 ft 323 kts 234°
2026-05-03 23:09 55.06869 11.18218 35551 ft 326 kts 234°
2026-05-03 23:10 55.05628 11.14912 35654 ft 328 kts 234°
2026-05-03 23:10 55.04379 11.11590 35757 ft 331 kts 234°
2026-05-03 23:10 55.03106 11.08211 35823 ft 341 kts 234°
2026-05-03 23:10 55.01776 11.04687 35823 ft 354 kts 234°
2026-05-03 23:11 55.00413 11.01077 35824 ft 367 kts 234°
2026-05-03 23:11 54.98986 10.97308 35822 ft 379 kts 234°
2026-05-03 23:11 54.97531 10.93462 35824 ft 390 kts 234°
2026-05-03 23:11 54.96024 10.89492 35813 ft 402 kts 234°
2026-05-03 23:12 54.94580 10.85261 35794 ft 414 kts 243°
2026-05-03 23:12 54.93748 10.80395 35810 ft 426 kts 252°
2026-05-03 23:12 54.93016 10.75383 35831 ft 432 kts 252°
2026-05-03 23:13 54.91499 10.65220 35817 ft 440 kts 252°
2026-05-03 23:13 54.89955 10.55013 35791 ft 441 kts 252°
2026-05-03 23:14 54.88397 10.44784 35826 ft 439 kts 252°
2026-05-03 23:14 54.86830 10.34552 35828 ft 437 kts 251°
2026-05-03 23:15 54.85265 10.24406 35810 ft 438 kts 251°
2026-05-03 23:15 54.83688 10.14241 35825 ft 438 kts 251°
2026-05-03 23:16 54.82093 10.04026 35806 ft 438 kts 251°
2026-05-03 23:16 54.80037 9.94194 35785 ft 431 kts 235°
2026-05-03 23:17 54.76640 9.85771 35824 ft 432 kts 233°
2026-05-03 23:17 54.73181 9.77258 35839 ft 431 kts 233°
2026-05-03 23:18 54.69711 9.68757 35790 ft 432 kts 233°
2026-05-03 23:18 54.66254 9.60317 35817 ft 432 kts 233°
2026-05-03 23:19 54.62779 9.51858 35838 ft 431 kts 233°
2026-05-03 23:19 54.59311 9.43447 35806 ft 434 kts 233°
2026-05-03 23:20 54.55795 9.34952 35830 ft 435 kts 233°
2026-05-03 23:20 54.52298 9.26528 35845 ft 435 kts 233°
2026-05-03 23:21 54.48750 9.18013 35818 ft 436 kts 233°
2026-05-03 23:21 54.45242 9.09619 35853 ft 435 kts 233°
2026-05-03 23:22 54.39942 8.96992 35862 ft 436 kts 233°
2026-05-03 23:22 54.36396 8.88583 35850 ft 436 kts 233°
2026-05-03 23:23 54.32805 8.80093 35835 ft 437 kts 233°
2026-05-03 23:23 54.29236 8.71681 35858 ft 437 kts 233°
2026-05-03 23:24 54.25662 8.63291 35840 ft 438 kts 233°
2026-05-03 23:24 54.22056 8.54851 35842 ft 438 kts 233°
2026-05-03 23:25 54.18449 8.46437 35856 ft 438 kts 233°